Astoria, OR

7:42 PM PDT on April 22, 2018 (GMT -0700)
Astoria Regional

Weather History for KAST - January, 2013

Change the Weather History Date:

Tuesday, January 29, 2013

  Actual Average Record
Temperature  
Mean Temperature 46 °F 44 °F  
Max Temperature 47 °F 51 °F 63 °F (1960)
Min Temperature 45 °F 38 °F 11 °F (1980)
Degree Days  
Heating Degree Days 19 21  
Month to date heating degree days 707 618  
Since 1 July heating degree days 2773 2724  
Cooling Degree Days 0 0  
Month to date cooling degree days 0 0  
Year to date cooling degree days 0 0  
Moisture  
Dew Point 44 °F    
Average Humidity 90    
Maximum Humidity 93    
Minimum Humidity 86    
Precipitation  
Precipitation 0.51 in 0.30 in 2.82 in (2006)
Month to date precipitation 7.80 9.61  
Year to date precipitation 7.80 9.61  
Snow  
Snow 0.00 in - - ()
Month to date snowfall 0.0  
Snow Depth 0.00 in    
Sea Level Pressure  
Sea Level Pressure 30.36 in    
Wind  
Wind Speed 11 mph (West)    
Max Wind Speed 20 mph    
Max Gust Speed 26 mph    
Visibility 5 miles    
Events Rain    
T = Trace of Precipitation, MM = Missing Value Source: NWS Daily Summary

Daily Weather History Graph

Daily Weather History Graph

Search for Another Location

Airport or City:

Astronomy

Jan. 29, 2013 Rise Set
Actual Time 7:41 AM PST 5:16 PM PST
Civil Twilight 7:09 AM PST 5:48 PM PST
Nautical Twilight 6:32 AM PST 6:25 PM PST
Astronomical Twilight 5:57 AM PST 7:00 PM PST
Moon 8:32 PM PST (1/29) 8:29 AM PST (1/29)
Length of Visible Light 10h 39m
Length of Day
9h 35m
Waning Gibbous, 93% of the Moon is Illuminated
Jan 29
Waning Gibbous
Feb 3
Last Quarter
Feb 9
New
Feb 17
First Quarter
Feb 25
Full

Hourly Weather History & Observations

Time (PST) Temp. Windchill Dew Point Humidity Pressure Visibility Wind Dir Wind Speed Gust Speed Precip Events Conditions
12:25 AM 44.6 °F 38.4 °F 42.8 °F 93% 30.22 in 9.0 mi West 12.7 mph - 0.01 in   Overcast
12:32 AM 44.6 °F 36.9 °F 42.8 °F 93% 30.23 in 4.0 mi West 18.4 mph 23.0 mph 0.01 in Rain Light Rain
12:55 AM 45.0 °F 37.9 °F 43.0 °F 93% 30.23 in 4.0 mi West 16.1 mph 25.3 mph 0.02 in Rain Light Rain
1:05 AM 44.6 °F 38.4 °F 42.8 °F 93% 30.23 in 6.0 mi West 12.7 mph 23.0 mph 0.00 in   Overcast
1:11 AM 44.6 °F 38.4 °F 42.8 °F 93% 30.23 in 10.0 mi West 12.7 mph 23.0 mph 0.00 in   Overcast
1:22 AM 44.6 °F 38.1 °F 42.8 °F 93% 30.23 in 4.0 mi WNW 13.8 mph 24.2 mph 0.00 in Rain Light Rain
1:25 AM 44.6 °F 38.8 °F 42.8 °F 93% 30.23 in 6.0 mi West 11.5 mph 21.9 mph 0.00 in Rain Light Rain
1:35 AM 44.6 °F 38.4 °F 42.8 °F 93% 30.23 in 5.0 mi West 12.7 mph - 0.00 in Rain Light Rain
1:55 AM 46.0 °F 39.6 °F 43.0 °F 89% 30.24 in 6.0 mi West 15.0 mph - 0.01 in Rain Light Rain
2:14 AM 44.6 °F 38.1 °F 42.8 °F 93% 30.24 in 4.0 mi WNW 13.8 mph 25.3 mph 0.01 in Rain Light Rain
2:55 AM 46.0 °F 39.9 °F 43.0 °F 89% 30.26 in 6.0 mi West 13.8 mph - 0.01 in Rain Light Rain
3:02 AM 44.6 °F 38.4 °F 42.8 °F 93% 30.26 in 4.0 mi West 12.7 mph 21.9 mph 0.01 in Rain Light Rain
3:27 AM 46.4 °F 39.5 °F 42.8 °F 87% 30.26 in 4.0 mi WNW 17.3 mph - 0.01 in   Overcast
3:37 AM 46.4 °F 40.1 °F 44.6 °F 93% 30.26 in 4.0 mi West 15.0 mph 24.2 mph 0.01 in   Overcast
3:55 AM 46.0 °F 40.2 °F 43.0 °F 89% 30.26 in 5.0 mi West 12.7 mph 21.9 mph 0.01 in Rain Light Rain
4:24 AM 44.6 °F 38.1 °F 42.8 °F 93% 30.27 in 4.0 mi West 13.8 mph 21.9 mph 0.00 in Rain Light Rain
4:39 AM 46.4 °F 40.7 °F 42.8 °F 87% 30.27 in 9.0 mi WNW 12.7 mph - 0.01 in   Overcast
4:55 AM 46.0 °F 39.6 °F 43.0 °F 89% 30.28 in 8.0 mi WNW 15.0 mph - 0.01 in   Overcast
5:02 AM 46.4 °F 40.1 °F 42.8 °F 87% 30.28 in 3.0 mi WNW 15.0 mph 21.9 mph 0.00 in Rain Light Rain
5:13 AM 44.6 °F 37.4 °F 42.8 °F 93% 30.28 in 2.5 mi WNW 16.1 mph 25.3 mph 0.00 in Rain Light Rain
5:22 AM 44.6 °F 37.4 °F 42.8 °F 93% 30.28 in 3.0 mi WNW 16.1 mph - 0.00 in Rain Light Rain
5:43 AM 44.6 °F 38.1 °F 42.8 °F 93% 30.29 in 2.5 mi WNW 13.8 mph 23.0 mph 0.02 in Rain Light Rain
5:49 AM 44.6 °F 37.4 °F 42.8 °F 93% 30.29 in 3.0 mi WNW 16.1 mph 24.2 mph 0.02 in Rain Light Rain
5:55 AM 45.0 °F 38.5 °F 43.0 °F 93% 30.30 in 3.0 mi WNW 13.8 mph 24.2 mph 0.02 in Rain Light Rain
6:09 AM 44.6 °F 37.4 °F 42.8 °F 93% 30.30 in 2.5 mi WNW 16.1 mph 23.0 mph 0.01 in Rain Light Rain
6:16 AM 44.6 °F 37.8 °F 42.8 °F 93% 30.30 in 3.0 mi WNW 15.0 mph 21.9 mph 0.01 in Rain Light Rain
6:38 AM 44.6 °F 38.1 °F 42.8 °F 93% 30.31 in 4.0 mi WNW 13.8 mph 19.6 mph 0.03 in Rain Light Rain
6:55 AM 45.0 °F 40.1 °F 43.0 °F 93% 30.31 in 7.0 mi WNW 9.2 mph 18.4 mph 0.03 in Rain Light Rain
7:27 AM 44.6 °F 39.7 °F 42.8 °F 93% 30.31 in 10.0 mi West 9.2 mph - 0.00 in Rain Light Rain
7:34 AM 44.6 °F 40.2 °F 42.8 °F 93% 30.32 in 10.0 mi West 8.1 mph - 0.00 in Rain Light Rain
7:48 AM 44.6 °F 40.2 °F 42.8 °F 93% 30.32 in 9.0 mi West 8.1 mph - 0.00 in   Overcast
7:55 AM 45.0 °F 39.7 °F 43.0 °F 93% 30.32 in 9.0 mi WNW 10.4 mph - 0.00 in   Overcast
8:08 AM 44.6 °F 40.2 °F 42.8 °F 93% 30.32 in 9.0 mi West 8.1 mph - N/A   Overcast
8:28 AM 46.4 °F 41.5 °F 42.8 °F 87% 30.34 in 10.0 mi West 10.4 mph 18.4 mph N/A   Overcast
8:55 AM 46.0 °F 41.9 °F 43.0 °F 89% 30.35 in 10.0 mi West 8.1 mph - N/A   Overcast
9:04 AM 46.4 °F 41.5 °F 44.6 °F 93% 30.36 in 6.0 mi West 10.4 mph - 0.00 in Rain Light Rain
9:19 AM 46.4 °F 42.4 °F 44.6 °F 93% 30.35 in 7.0 mi West 8.1 mph - 0.00 in   Overcast
9:55 AM 46.9 °F - 44.1 °F 90% 30.37 in 10.0 mi West 9.2 mph - 0.00 in   Overcast
10:07 AM 46.4 °F 41.9 °F 44.6 °F 93% 30.37 in 7.0 mi West 9.2 mph - N/A   Overcast
10:30 AM 46.4 °F 41.9 °F 44.6 °F 93% 30.38 in 10.0 mi West 9.2 mph - N/A   Overcast
10:52 AM 46.4 °F 40.4 °F 44.6 °F 93% 30.39 in 4.0 mi West 13.8 mph - N/A   Overcast
10:53 AM 46.4 °F 41.1 °F 44.6 °F 93% 30.39 in 3.0 mi West 11.5 mph - N/A   Overcast
10:55 AM 46.0 °F 40.2 °F 44.1 °F 93% 30.39 in 2.5 mi West 12.7 mph - N/A   Overcast
11:02 AM 46.4 °F 41.9 °F 44.6 °F 93% 30.39 in 3.0 mi West 9.2 mph - N/A   Overcast
11:18 AM 46.4 °F 42.4 °F 44.6 °F 93% 30.40 in 10.0 mi West 8.1 mph - N/A   Overcast
11:55 AM 46.0 °F 41.0 °F 45.0 °F 96% 30.41 in 1.8 mi West 10.4 mph - 0.00 in Rain Light Rain
12:01 PM 46.4 °F 41.5 °F 44.6 °F 93% 30.41 in 3.0 mi West 10.4 mph - 0.00 in Rain Light Rain
12:18 PM 46.4 °F 40.7 °F 44.6 °F 93% 30.41 in 2.0 mi West 12.7 mph - 0.00 in Rain Light Rain
12:27 PM 46.4 °F 41.9 °F 44.6 °F 93% 30.41 in 7.0 mi West 9.2 mph - 0.00 in Rain Light Rain
12:55 PM 46.9 °F - 45.0 °F 93% 30.41 in 3.0 mi West 10.4 mph - 0.01 in Rain Light Rain
1:04 PM 46.4 °F 41.5 °F 44.6 °F 93% 30.41 in 2.5 mi West 10.4 mph - 0.00 in Rain Light Rain
1:42 PM 46.4 °F 42.4 °F 44.6 °F 93% 30.41 in 3.0 mi West 8.1 mph - 0.01 in Rain Light Rain
1:55 PM 46.9 °F - 45.0 °F 93% 30.40 in 2.5 mi WSW 8.1 mph - 0.02 in Rain Light Rain
2:11 PM 46.4 °F 41.1 °F 44.6 °F 93% 30.41 in 1.5 mi WSW 11.5 mph - 0.00 in Rain Light Rain
2:25 PM 46.4 °F 41.9 °F 44.6 °F 93% 30.41 in 2.0 mi West 9.2 mph - 0.01 in Rain Light Rain
2:55 PM 46.9 °F - 45.0 °F 93% 30.42 in 3.0 mi West 8.1 mph - 0.01 in Rain Light Rain
3:15 PM 46.4 °F 41.5 °F 44.6 °F 93% 30.43 in 2.0 mi West 10.4 mph - 0.00 in Rain Light Rain
3:48 PM 46.4 °F 42.4 °F 44.6 °F 93% 30.43 in 1.8 mi West 8.1 mph - 0.01 in Rain Light Rain
3:55 PM 46.9 °F - 45.0 °F 93% 30.44 in 1.5 mi West 10.4 mph - 0.01 in Rain Light Rain
4:05 PM 46.4 °F 41.5 °F 44.6 °F 93% 30.44 in 1.2 mi West 10.4 mph - 0.01 in Rain Light Rain
4:11 PM 46.4 °F 41.5 °F 44.6 °F 93% 30.44 in 1.5 mi West 10.4 mph - 0.01 in Rain Light Rain
4:18 PM 46.4 °F 41.1 °F 44.6 °F 93% 30.45 in 1.2 mi West 11.5 mph - 0.01 in Rain Light Rain
4:33 PM 46.4 °F 41.5 °F 44.6 °F 93% 30.44 in 1.5 mi West 10.4 mph - 0.02 in Rain Light Rain
4:46 PM 46.4 °F 42.4 °F 44.6 °F 93% 30.44 in 2.5 mi West 8.1 mph - 0.02 in Rain Light Rain
4:55 PM 46.0 °F 41.9 °F 44.1 °F 93% 30.44 in 2.0 mi West 8.1 mph - 0.02 in Rain Light Rain
5:06 PM 46.4 °F 42.4 °F 44.6 °F 93% 30.45 in 6.0 mi West 8.1 mph - 0.00 in Rain Light Rain
5:31 PM 46.4 °F 42.4 °F 44.6 °F 93% 30.44 in 2.5 mi WSW 8.1 mph - 0.00 in   Overcast
5:41 PM 46.4 °F 41.1 °F 44.6 °F 93% 30.45 in 3.0 mi West 11.5 mph - 0.01 in Rain Light Rain
5:55 PM 46.0 °F 42.5 °F 44.1 °F 93% 30.45 in 10.0 mi West 6.9 mph - 0.01 in   Overcast
6:04 PM 46.4 °F 41.9 °F 44.6 °F 93% 30.45 in 10.0 mi WSW 9.2 mph - N/A   Overcast
6:23 PM 46.4 °F 42.4 °F 42.8 °F 87% 30.44 in 10.0 mi WSW 8.1 mph - N/A   Overcast
6:52 PM 46.4 °F 42.4 °F 42.8 °F 87% 30.45 in 10.0 mi WSW 8.1 mph - N/A   Overcast
6:55 PM 46.0 °F 41.4 °F 43.0 °F 89% 30.45 in 10.0 mi WSW 9.2 mph - N/A   Overcast
7:34 PM 46.4 °F 41.5 °F 44.6 °F 93% 30.46 in 8.0 mi WSW 10.4 mph - 0.00 in Rain Light Rain
7:41 PM 46.4 °F 41.1 °F 44.6 °F 93% 30.45 in 10.0 mi WSW 11.5 mph - 0.00 in   Overcast
7:55 PM 46.0 °F 40.6 °F 44.1 °F 93% 30.45 in 10.0 mi SW 11.5 mph - 0.00 in   Overcast
8:09 PM 46.4 °F 41.9 °F 44.6 °F 93% 30.45 in 10.0 mi SW 9.2 mph - N/A   Overcast
8:55 PM 46.0 °F 41.0 °F 44.1 °F 93% 30.44 in 2.5 mi SW 10.4 mph - 0.00 in Rain Light Rain
9:41 PM 46.4 °F 41.1 °F 44.6 °F 93% 30.42 in 3.0 mi SSW 11.5 mph 19.6 mph 0.06 in Rain Light Rain
9:48 PM 46.4 °F 40.4 °F 44.6 °F 93% 30.42 in 2.0 mi SSW 13.8 mph 20.7 mph 0.07 in Rain Light Rain
9:55 PM 46.4 °F 40.7 °F 44.6 °F 93% 30.42 in 2.5 mi SSW 12.7 mph 21.9 mph N/A Rain Light Rain
10:26 PM 46.4 °F 40.4 °F 44.6 °F 93% 30.41 in 3.0 mi SSW 13.8 mph 21.9 mph 0.05 in Rain Light Rain
10:36 PM 46.4 °F 40.7 °F 44.6 °F 93% 30.41 in 2.0 mi SW 12.7 mph 24.2 mph 0.06 in Rain Rain
10:55 PM 46.9 °F - 45.0 °F 93% 30.41 in 2.0 mi SSW 12.7 mph 21.9 mph 0.11 in Rain Rain
11:19 PM 46.4 °F 40.1 °F 44.6 °F 93% 30.41 in 2.0 mi SSW 15.0 mph 24.2 mph 0.06 in Rain Rain
11:41 PM 46.4 °F 39.5 °F 44.6 °F 93% 30.41 in 3.0 mi SSW 17.3 mph 23.0 mph 0.11 in Rain Rain
11:55 PM 46.9 °F - 45.0 °F 93% 30.41 in 2.5 mi SSW 16.1 mph 23.0 mph 0.13 in Rain Rain